Location: Frankfurt+am+Main
(50.1100°N, 8.4815°E)
Time: 02:12:39
(UTC+01:00)

ISS - Pass Details

Date: 09 January 2018
Orbit: 401 x 406 km, 51.6° (Epoch: 17 January)

Event Time Altitude Azimuth Distance (km) Brightness Sun altitude
Exits shadow 05:50:18 40° 77° (ENE) 616 -2.5 -23.5°
Drops below altitude 10° 05:52:34 10° 91° (E) 1,466 0.1 -23.2°
Sets 05:54:40 0° 94° (E) 2,327 1.5 -22.8°
